User: anonymous   Login
Location: Hartman Creek State Park
(44.3257°N, 89.2134°W)
Time: 10:56:46
(UTC-06:00)
Language:

Cosmos 2263 Rocket - Orbit

View from above orbital plane
View from above orbital plane
View from above satellite
View from above satellite

Ground track
Ground track

The orbit data is extracted from the following two-line orbital elements,

1 22803U 93059B   17018.54454411  .00000242  00000-0  14445-3 0  9995
2 22803  70.9882 204.7649 0019445 255.3080 104.5888 14.16762081207086
Epoch (UTC): 18 January 2017 13:04:08
Eccentricity: 0.0019445
inclination: 70.9882°
perigee height: 822 km
apogee height: 850 km
right ascension of ascending node: 204.7649°
argument of perigee: 255.3080°
revolutions per day: 14.16762081
mean anomaly at epoch: 104.5888°
orbit number at epoch: 20708

The dashed part of the orbit path shows where the satellite is in the earth's shadow,  

DLR